Waarnemingen

Advertentie
Mijn weer
Milano/Malpensa, Italië (16066): temperatuur & dauwpunt: 11.10.2017 11:00:00 - 17.10.2017 11:00:00 (CEST)Milano/Malpensa, Italië (16066): windsnelheid: 11.10.2017 11:00:00 - 17.10.2017 11:00:00 (CEST)Milano/Malpensa, Italië (16066): windrichting: 11.10.2017 11:00:00 - 17.10.2017 11:00:00 (CEST)Milano/Malpensa, Italië (16066): luchtdruk: 11.10.2017 11:00:00 - 17.10.2017 11:00:00 (CEST)Milano/Malpensa, Italië (16066): zicht: 11.10.2017 11:00:00 - 17.10.2017 11:00:00 (CEST)Milano/Malpensa, Italië (16066): neerslag: 11.10.2017 11:00:00 - 17.10.2017 11:00:00 (CEST)
Datum & Tijd tt [°C] td [°C] ff [km/u] ff [kn] dd ppp [hPa] vv [km] rr [mm]
17.10.2017 11:00:00 18,2 10,8 5 3 NW 1027,4 10 0,0
17.10.2017 10:00:00 15,0 11,0 8 4 N - 10 -
17.10.2017 09:00:00 11,0 9,0 11 6 N - 10 -
17.10.2017 08:00:00 9,5 8,1 9 5 N 1027,1 10 -
17.10.2017 07:00:00 8,0 7,0 9 5 N - 10 -
17.10.2017 06:00:00 9,0 6,0 11 6 N - 10 -
17.10.2017 05:00:00 9,0 7,8 11 6 N 1027,2 10 0,0
17.10.2017 04:00:00 10,0 9,0 13 7 N - 10 -
17.10.2017 03:00:00 11,0 10,0 9 5 N - 10 -
17.10.2017 02:00:00 10,1 8,6 13 7 N 1027,8 10 -
17.10.2017 01:00:00 10,0 9,0 11 6 N - 10 -
17.10.2017 00:00:00 10,0 9,0 9 5 N - 10 -
16.10.2017 23:00:00 12,1 10,1 8 4 N 1028,1 10 0,0
16.10.2017 22:00:00 13,0 11,0 11 6 N - 10 -
16.10.2017 21:00:00 14,0 10,0 5 3 NNO - 10 -
16.10.2017 20:00:00 15,7 11,1 2 1 - 1027,4 10 -
16.10.2017 19:00:00 22,0 11,0 8 4 ZW - 10 -
16.10.2017 18:00:00 23,0 11,0 8 4 ZW - 10 -
16.10.2017 17:00:00 24,3 11,3 8 4 ZW 1027,1 10 0,0
16.10.2017 16:00:00 25,0 11,0 5 3 WZW - 10 -
16.10.2017 15:00:00 24,0 12,0 9 5 WZW - 10 -
16.10.2017 14:00:00 22,9 11,8 5 3 ZW 1028,3 10 -
16.10.2017 13:00:00 22,0 12,0 8 4 - - 10 -
16.10.2017 12:00:00 20,0 11,0 4 2 - - 10 -
16.10.2017 11:00:00 18,3 12,0 9 5 N 1029,6 10 0,0
16.10.2017 10:00:00 15,0 12,0 9 5 N - 10 -
16.10.2017 09:00:00 11,0 10,0 9 5 NNO - 10 -
16.10.2017 08:00:00 8,8 7,8 11 6 N 1029,0 10 -
16.10.2017 07:00:00 9,0 8,0 5 3 N - 10 -
16.10.2017 06:00:00 9,0 8,0 8 4 NNO - 8 -
16.10.2017 05:00:00 10,6 9,7 9 5 N 1028,8 10 0,0
16.10.2017 04:00:00 10,0 9,0 11 6 N - 10 -
16.10.2017 03:00:00 10,0 9,0 11 6 N - 10 -
16.10.2017 02:00:00 9,9 9,0 9 5 NNO 1029,2 10 -
16.10.2017 01:00:00 11,0 10,0 5 3 NNO - 10 -
16.10.2017 00:00:00 12,0 10,0 9 5 NNO - 10 -
15.10.2017 23:00:00 11,4 9,8 9 5 NNO 1029,0 10 0,0
15.10.2017 22:00:00 12,0 11,0 11 6 NNO - 10 -
15.10.2017 21:00:00 13,0 11,0 8 4 NNO - 10 -
15.10.2017 20:00:00 15,3 12,1 4 2 NNO 1028,3 10 -
15.10.2017 19:00:00 20,0 12,0 2 1 Z - 8 -
15.10.2017 18:00:00 23,0 12,0 5 3 ZW - 10 -
15.10.2017 17:00:00 23,7 12,1 5 3 ZW 1027,9 10 0,0
15.10.2017 16:00:00 24,0 13,0 8 4 ZW - 10 -
15.10.2017 15:00:00 23,0 12,0 9 5 ZW - 10 -
15.10.2017 14:00:00 22,9 12,5 13 7 ZW 1029,3 10 -
15.10.2017 13:00:00 21,0 13,0 8 4 WZW - 10 -
15.10.2017 12:00:00 20,0 12,0 5 3 WNW - 10 -
15.10.2017 11:00:00 17,7 12,4 5 3 NW 1030,7 10 0,0
15.10.2017 10:00:00 15,0 12,0 8 4 NNO - 10 -
15.10.2017 09:00:00 12,0 11,0 8 4 N - 9 -
15.10.2017 08:00:00 10,4 9,8 9 5 NNO 1030,1 9 -
15.10.2017 07:00:00 9,0 9,0 5 3 NNO - 10 -
15.10.2017 06:00:00 9,0 9,0 5 3 NNO - 10 -
15.10.2017 05:00:00 10,5 9,7 9 5 N 1029,6 7 0,0
15.10.2017 04:00:00 10,0 9,0 9 5 N - 7 -
15.10.2017 03:00:00 11,0 10,0 11 6 N - 7 -
15.10.2017 02:00:00 10,9 9,9 11 6 N 1029,9 7 -
15.10.2017 01:00:00 11,0 10,0 11 6 NNO - 7 -
15.10.2017 00:00:00 11,0 11,0 8 4 NNO - 8 -
14.10.2017 23:00:00 11,7 9,8 8 4 NNO 1029,8 10 0,0
14.10.2017 22:00:00 14,0 12,0 9 5 N - 10 -
14.10.2017 21:00:00 15,0 12,0 4 2 - - 10 -
14.10.2017 20:00:00 15,7 12,2 5 3 NNO 1028,6 10 -
14.10.2017 19:00:00 20,0 13,0 4 2 - - 10 -
14.10.2017 18:00:00 23,0 13,0 5 3 ZW - 10 -
14.10.2017 17:00:00 23,5 12,0 4 2 - 1027,7 10 0,0
14.10.2017 16:00:00 24,0 12,0 5 3 W - 10 -
14.10.2017 15:00:00 23,0 12,0 5 3 - - 10 -
14.10.2017 14:00:00 22,0 12,4 5 3 - 1028,6 10 -
14.10.2017 13:00:00 21,0 13,0 5 3 - - 10 -
14.10.2017 12:00:00 20,0 13,0 2 1 - - 10 -
14.10.2017 11:00:00 17,6 12,2 5 3 N 1029,7 10 0,0
14.10.2017 10:00:00 15,0 12,0 9 5 N - 7 -
14.10.2017 09:00:00 10,0 10,0 9 5 N - 5 -
14.10.2017 08:00:00 9,0 8,2 9 5 NNO 1028,6 7 -
14.10.2017 07:00:00 10,0 9,0 11 6 N - 7 -
14.10.2017 06:00:00 9,0 8,0 11 6 N - 7 -
14.10.2017 05:00:00 10,1 9,2 13 7 N 1028,1 7 0,0
14.10.2017 04:00:00 10,0 10,0 13 7 NNO - 7 -
14.10.2017 03:00:00 9,0 9,0 9 5 N - 5 -
14.10.2017 02:00:00 9,7 8,9 4 2 NNO 1028,0 6 -
14.10.2017 01:00:00 11,0 10,0 9 5 N - 7 -
14.10.2017 00:00:00 12,0 11,0 8 4 N - 9 -
13.10.2017 23:00:00 11,9 10,5 9 5 NNO 1027,5 10 0,0
13.10.2017 22:00:00 12,0 10,0 9 5 N - 10 -
13.10.2017 21:00:00 13,0 11,0 8 4 NNO - 10 -
13.10.2017 20:00:00 14,5 11,7 5 3 NNO 1026,8 10 -
13.10.2017 19:00:00 20,0 12,0 4 2 Z - 10 -
13.10.2017 18:00:00 22,0 12,0 4 2 - - 10 -
13.10.2017 17:00:00 22,2 11,8 4 2 - 1026,4 10 0,0
13.10.2017 16:00:00 22,0 12,0 5 3 - - 10 -
13.10.2017 15:00:00 22,0 12,0 5 3 - - 10 -
13.10.2017 14:00:00 21,2 12,1 5 3 O 1027,8 7 -
13.10.2017 13:00:00 20,0 12,0 5 3 ZZW - 6 -
13.10.2017 12:00:00 19,0 12,0 5 3 - - 6 -
13.10.2017 11:00:00 17,1 11,7 4 2 - 1028,8 6 0,0
13.10.2017 10:00:00 14,0 12,0 4 2 N - 7 -
13.10.2017 09:00:00 11,0 10,0 5 3 NNO - 7 -
13.10.2017 08:00:00 8,9 8,0 11 6 N 1027,1 7 -
13.10.2017 07:00:00 10,0 9,0 9 5 N - 7 -
13.10.2017 06:00:00 9,0 9,0 8 4 N - 7 -
13.10.2017 05:00:00 10,7 9,7 9 5 N 1026,8 7 0,0
13.10.2017 04:00:00 11,0 10,0 13 7 NNO - 7 -
13.10.2017 03:00:00 10,0 9,0 11 6 N - 5 -
13.10.2017 02:00:00 10,3 9,1 8 4 N 1027,4 6 -
13.10.2017 01:00:00 10,0 10,0 9 5 N - 6 -
13.10.2017 00:00:00 12,0 10,0 4 2 N - 7 -
12.10.2017 23:00:00 12,2 10,1 13 7 N 1027,2 8 0,0
12.10.2017 22:00:00 12,0 10,0 9 5 N - 10 -
12.10.2017 21:00:00 13,0 10,0 8 4 NNO - 10 -
12.10.2017 20:00:00 14,9 10,5 4 2 - 1026,0 10 -
12.10.2017 19:00:00 20,0 11,0 5 3 ZZW - 10 -
12.10.2017 18:00:00 21,0 11,0 8 4 ZW - 10 -
12.10.2017 17:00:00 21,9 10,9 5 3 ZZW 1025,0 10 0,0
12.10.2017 16:00:00 22,0 11,0 9 5 ZW - 9 -
12.10.2017 15:00:00 22,0 11,0 5 3 - - 9 -
12.10.2017 14:00:00 21,0 11,6 8 4 WZW 1025,7 9 -
12.10.2017 13:00:00 20,0 12,0 9 5 WZW - 9 -
12.10.2017 12:00:00 18,0 12,0 4 2 - - 9 -
12.10.2017 11:00:00 17,7 11,7 5 3 NNW 1026,1 7 0,0
12.10.2017 10:00:00 14,0 12,0 8 4 N - 7 -
12.10.2017 09:00:00 11,0 10,0 9 5 N - 5 -
12.10.2017 08:00:00 9,1 8,6 5 3 NNO 1024,9 5 -
12.10.2017 07:00:00 9,0 8,0 5 3 N - 9 -
12.10.2017 06:00:00 9,0 8,0 5 3 NNO - 7 -
12.10.2017 05:00:00 9,4 8,5 9 5 N 1024,1 8 0,0
12.10.2017 04:00:00 9,0 8,0 8 4 NNO - 7 -
12.10.2017 03:00:00 9,0 7,0 8 4 N - 7 -
12.10.2017 02:00:00 9,5 8,4 9 5 N 1024,6 6 -
12.10.2017 01:00:00 10,0 9,0 9 5 NNO - 8 -
12.10.2017 00:00:00 11,0 10,0 9 5 N - 8 -
11.10.2017 23:00:00 10,7 9,4 8 4 NNO 1024,9 8 0,0
11.10.2017 22:00:00 12,0 10,0 9 5 NNO - 8 -
11.10.2017 21:00:00 12,0 10,0 5 3 NNO - 7 -
11.10.2017 20:00:00 13,5 10,7 4 2 NNO 1023,9 7 -
11.10.2017 19:00:00 18,0 11,0 4 2 - - 8 -
11.10.2017 18:00:00 20,0 12,0 5 3 ZW - 8 -
11.10.2017 17:00:00 20,2 10,4 5 3 ZZO 1023,3 8 0,0
11.10.2017 16:00:00 20,0 11,0 4 2 - - 8 -
11.10.2017 15:00:00 19,0 12,0 4 2 - - 8 -
11.10.2017 14:00:00 18,2 11,5 4 2 - 1024,5 10 -
11.10.2017 13:00:00 17,0 11,0 4 2 - - 10 -
11.10.2017 12:00:00 16,0 11,0 8 4 NNW - 10 -
11.10.2017 11:00:00 15,1 10,2 8 4 NNO 1025,0 10 0,0

tt = temperatuur
td = dauwpunt
ff = windsnelheid
dd = windrichting
ppp = luchtdruk
vv = zicht
rr = neerslag

Weerstations in de omgeving